[[{"header":{"parameterUnit":"m.s-1","parameterCategory":1,"la1":30.2991,"la2":30.254,"lo1":-89.0895,"lo2":-89.0444,"dy":0.0017,"dx":0.0017,"nx":28,"ny":28,"refTime":"2024-09-02T09:00:00:Z","depth":0,"parameterNumber":2,"parameterNumberName":"U-component_of_WINDS"},"data":[0,0,0,0,0,0,0,0,0,0,0,0,0,0,0,0,0,0,0,0,0,0,0,0,0,0,0,0,0,0,0,0,0,0,0,0,0,0,0,0,0,0,0,0,0,0,0,0,0,0,0,0,0,0,0,0,0,0,1.9196,1.9197,0,1.9283,1.9284,1.9285,1.9293,1.9292,1.9291,1.929,1.9372,1.9375,1.9377,0,0,0,0,0,0,0,0,0,0,0,0,0,1.9027,1.903,1.9195,1.9197,1.9198,1.9283,1.9284,1.9286,1.9293,1.9292,1.9291,1.929,1.9371,1.9374,1.9378,0,0,0,0,0,0,0,0,0,0,0,0,0,1.9106,1.9031,1.9195,1.9212,1.9214,1.9283,1.9284,1.9286,1.9293,1.9292,1.9291,1.9289,1.9369,1.9374,1.9378,1.9433,0,0,1.9392,1.9394,0,0,0,0,0,0,0,0,1.9101,1.9112,1.9208,1.9211,1.9214,1.9276,1.9255,1.9335,1.9294,1.9263,1.929,1.9289,1.934,1.9347,1.9366,1.9437,1.9441,1.9392,1.9395,1.9397,1.9398,0,0,0,0,0,0,0,1.9096,1.9108,1.923,1.921,1.9213,1.9213,1.9222,1.927,1.9308,1.9266,1.9267,1.9277,1.9341,1.9362,1.9368,1.9442,1.9392,1.9396,1.9399,1.9401,1.9563,1.9564,0,0,0,0,0,0,1.9088,1.9104,1.9227,1.9233,1.9153,1.9217,1.9228,1.9257,1.9308,1.9314,1.9278,1.9277,1.9355,1.9363,1.9371,1.9439,1.9397,1.9401,1.9404,1.9561,1.9563,1.9565,0,0,0,0,0,0,1.9085,1.9099,1.9224,1.9169,1.9184,1.9221,1.9254,1.926,1.928,1.9317,1.9323,1.9293,1.9354,1.9365,1.9419,1.9442,1.9403,1.9407,1.9559,1.9562,1.9564,1.9575,0,0,0,0,0,0,1.908,1.9098,1.9121,1.9169,1.9187,1.9272,1.9256,1.9262,1.9289,1.9289,1.9332,1.9338,1.9354,1.9412,1.9423,1.9447,1.9411,1.9557,1.956,1.9563,1.9573,1.9578,1.9582,0,0,0,0,0,1.9074,1.9118,1.9122,1.9137,1.9217,1.9273,1.9283,1.9303,1.9291,1.9313,1.9337,1.9337,1.9438,1.9417,1.943,1.9456,1.9556,1.956,1.9563,1.9571,1.9577,1.9582,0,0,0,0,0,0,1.9068,1.9125,1.9129,1.9191,1.9228,1.9274,1.9303,1.9308,1.9346,1.9344,1.9364,1.9374,1.9427,1.9447,1.9423,1.9512,1.9495,1.9502,1.9497,1.9503,1.9507,1.95,1.9415,0,0,0,0,0,1.9075,1.9118,1.9164,1.9214,1.9233,1.9265,1.929,1.9303,1.934,1.9354,1.9382,1.9416,1.9455,1.948,1.9519,1.9577,1.9585,1.9601,1.9605,1.9609,1.9613,1.9645,1.9652,1.9577,1.9577,1.9577,0,0,1.9087,1.9124,1.9149,1.9214,1.9244,1.9286,1.9277,1.9322,1.9353,1.936,1.9413,1.9435,1.9474,1.953,1.9556,1.9548,1.9637,1.9613,1.9616,1.9618,1.9649,1.9657,1.9663,1.9579,1.9579,1.9578,0,0,1.9131,1.9164,1.921,1.9241,1.9288,1.9309,1.932,1.9367,1.9383,1.9437,1.9444,1.9479,1.9547,1.9575,1.9598,1.9656,1.9657,1.9668,1.969,1.9721,1.9727,1.9732,1.9752,1.9759,1.9673,1.9673,1.9673,0,1.914,1.9207,1.9232,1.9278,1.9305,1.9318,1.9363,1.9391,1.9446,1.9464,1.9456,1.9543,1.9569,1.9632,1.9647,1.9666,1.9677,1.9662,1.9725,1.973,1.9736,1.9754,1.9762,1.9674,1.9674,1.9674,1.9673,0,1.9215,1.9261,1.9292,1.9349,1.9381,1.9426,1.9456,1.9484,1.9495,1.9517,1.9572,1.9605,1.9651,1.9667,1.9676,1.9732,1.9726,1.9721,1.9704,1.9743,1.9761,1.9769,1.9675,1.9675,1.9674,1.9674,0,0,1.9254,1.9328,1.9339,1.9365,1.9419,1.9454,1.9499,1.9547,1.9571,1.9609,1.9646,1.9705,1.9702,1.9728,1.9741,1.9768,1.9811,1.976,1.9761,1.9767,1.9873,1.9875,1.9883,1.9814,1.9815,1.9816,1.987,0,1.9304,1.9388,1.9413,1.9483,1.9526,1.954,1.9579,1.9615,1.9637,1.9674,1.9698,1.9739,1.9732,1.9748,1.9776,1.98,1.9832,1.9797,1.9846,1.9847,1.9834,1.9893,1.9895,1.9944,1.9877,1.9878,1.9879,0,1.9372,1.9416,1.9491,1.9541,1.956,1.9595,1.9642,1.9678,1.9719,1.9733,1.9764,1.9775,1.9821,1.9804,1.9866,1.9842,1.9863,1.9879,1.9881,1.9884,1.9864,1.9896,1.996,1.9966,1.9891,1.989,1.9889,0,1.9392,1.947,1.9525,1.9547,1.9607,1.9632,1.9657,1.9697,1.9725,1.9765,1.9783,1.9827,1.985,1.9883,1.9905,1.9891,1.9965,1.995,1.9976,1.9976,1.9989,1.9988,2.0055,2.0006,2.0006,2.0006,2.0006,0,1.9443,1.9488,1.9535,1.9569,1.9619,1.9647,1.9696,1.9721,1.9758,1.9795,1.9809,1.9843,1.9871,1.9908,1.9926,1.9974,1.9985,1.9996,1.9999,1.9994,1.9992,2.0006,2.0003,2.0008,2.0008,2.0007,2.0007,0,1.9473,1.9507,1.9568,1.9621,1.9636,1.967,1.9714,1.9747,1.9771,1.9818,1.983,1.9867,1.9912,1.9938,1.9994,2.0006,2.0059,2.0062,2.0046,2.0047,2.0072,2.0069,2.0149,2.0161,2.0106,2.0106,2.0107,0,1.9502,1.9538,1.9597,1.9625,1.9652,1.9696,1.9726,1.9755,1.9784,1.9835,1.9861,1.9908,1.9946,2.0017,2.0047,2.009,2.0093,2.0118,2.0099,2.0092,2.0091,2.0088,2.0091,2.012,2.0121,2.0121,2.0122,0,1.9551,1.9567,1.9611,1.9661,1.9698,1.9738,1.9777,1.9798,1.9834,1.9866,1.9915,1.9945,2.0004,2.0049,2.0095,2.0119,2.0125,2.0128,2.0136,2.0129,2.0118,2.0123,2.0053,2.0125,2.0125,2.0125,2.0124,2.0124,1.9581,1.9613,1.9661,1.9709,1.9743,1.9781,1.9814,1.9844,1.9886,1.9939,1.9953,2.0003,2.0043,2.0107,2.0132,2.0169,2.0165,2.0177,2.0179,2.0181,2.0182,2.0115,2.0178,2.0178,2.0178,2.0178,2.0178,0,1.9629,1.9661,1.9706,1.9763,1.9801,1.9809,1.9854,1.9884,1.993,1.9969,2.0008,2.0063,2.0108,2.0143,2.0188,2.0212,2.0216,2.0223,2.022,2.0225,2.0184,2.0172,2.0219,2.0219,2.0219,2.0219,2.0219,2.0219,1.9658,1.9714,1.9736,1.9808,1.9839,1.9891,1.9916,1.995,1.9982,2.0044,2.0083,2.0107,2.0144,2.0193,2.0234,2.0243,2.0258,2.0264,2.0273,2.0233,2.0228,2.0224,2.0213,2.0268,2.0268,2.0311,2.0312,2.0312]},{"header":{"parameterUnit":"m.s-1","parameterCategory":1,"la1":30.2991,"la2":30.254,"lo1":-89.0895,"lo2":-89.0444,"dy":0.0017,"dx":0.0017,"nx":28,"ny":28,"refTime":"2024-09-02T09:00:00:Z","depth":0,"parameterNumber":3,"parameterNumberName":"V-component_of_WINDS"},"data":[0,0,0,0,0,0,0,0,0,0,0,0,0,0,0,0,0,0,0,0,0,0,0,0,0,0,0,0,0,0,0,0,0,0,0,0,0,0,0,0,0,0,0,0,0,0,0,0,0,0,0,0,0,0,0,0,0,0,1.0775,1.0774,0,1.0747,1.0747,1.0747,1.0716,1.0716,1.0716,1.0715,1.0685,1.0684,1.0684,0,0,0,0,0,0,0,0,0,0,0,0,0,1.0799,1.0799,1.0775,1.0774,1.0774,1.0747,1.0747,1.0747,1.0717,1.0716,1.0715,1.0715,1.0685,1.0685,1.0684,0,0,0,0,0,0,0,0,0,0,0,0,0,1.0782,1.0799,1.0775,1.0756,1.0754,1.0748,1.0747,1.0747,1.0717,1.0716,1.0715,1.0715,1.0685,1.0685,1.0684,1.0693,0,0,1.0682,1.0682,0,0,0,0,0,0,0,0,1.0783,1.0781,1.0759,1.0757,1.0755,1.0735,1.0745,1.0729,1.0717,1.0731,1.0715,1.0714,1.0702,1.07,1.0696,1.0692,1.0691,1.0682,1.0682,1.0681,1.0681,0,0,0,0,0,0,0,1.0784,1.0782,1.0764,1.0759,1.0756,1.0748,1.0745,1.0741,1.072,1.0729,1.0727,1.0724,1.0701,1.0697,1.0695,1.069,1.0682,1.0682,1.0681,1.0681,1.0694,1.0695,0,0,0,0,0,0,1.0788,1.0783,1.0765,1.0763,1.0768,1.0748,1.0745,1.0742,1.072,1.0716,1.0725,1.0723,1.0698,1.0696,1.0694,1.0705,1.0682,1.0681,1.0681,1.0694,1.0695,1.0695,0,0,0,0,0,0,1.0789,1.0787,1.0766,1.0772,1.0769,1.0749,1.0746,1.0742,1.0738,1.0717,1.0713,1.0725,1.0697,1.0695,1.0694,1.0703,1.0681,1.068,1.0693,1.0694,1.0695,1.0726,0,0,0,0,0,0,1.079,1.0787,1.0791,1.0773,1.0769,1.0767,1.0746,1.0742,1.0737,1.0734,1.0716,1.0712,1.0697,1.0695,1.0694,1.0702,1.068,1.0692,1.0693,1.0695,1.0724,1.0728,1.0731,0,0,0,0,0,1.0791,1.08,1.0791,1.0789,1.0773,1.0768,1.0765,1.0748,1.0738,1.0741,1.0728,1.0713,1.0703,1.0696,1.0694,1.0702,1.0691,1.0693,1.0695,1.0722,1.0727,1.0731,0,0,0,0,0,0,1.0818,1.0797,1.0787,1.0791,1.0781,1.0762,1.0766,1.0753,1.0746,1.0743,1.0722,1.0718,1.072,1.0711,1.0703,1.0711,1.0695,1.0696,1.0717,1.0721,1.0725,1.0727,1.0679,0,0,0,0,0,1.0825,1.0823,1.0804,1.0809,1.0805,1.0786,1.0783,1.0771,1.076,1.0756,1.0742,1.0732,1.0726,1.0723,1.0717,1.0723,1.0718,1.0727,1.0731,1.0734,1.0735,1.0739,1.0743,1.0701,1.0701,1.0701,0,0,1.0838,1.0826,1.0826,1.0814,1.0805,1.0804,1.0783,1.0781,1.078,1.0755,1.0754,1.0745,1.0731,1.0735,1.0735,1.0727,1.0746,1.0736,1.0739,1.0738,1.0741,1.0745,1.0749,1.0702,1.0702,1.0701,0,0,1.0861,1.0852,1.0856,1.0848,1.0835,1.0824,1.0825,1.0808,1.0801,1.08,1.0782,1.078,1.077,1.0762,1.0757,1.078,1.0765,1.0778,1.0797,1.0801,1.0804,1.0807,1.0816,1.0819,1.0779,1.078,1.078,0,1.0879,1.0876,1.0859,1.0859,1.0855,1.0834,1.0838,1.083,1.0816,1.0814,1.0805,1.0794,1.0784,1.0785,1.0791,1.0787,1.0788,1.078,1.0805,1.0808,1.081,1.0818,1.0822,1.0781,1.0781,1.0781,1.0781,0,1.0899,1.0897,1.0902,1.089,1.0886,1.0888,1.0871,1.087,1.0858,1.0847,1.0848,1.0835,1.0826,1.0826,1.0814,1.0826,1.0822,1.0809,1.0793,1.0816,1.0824,1.0827,1.0784,1.0783,1.0783,1.0782,0,0,1.0937,1.0918,1.092,1.0915,1.0901,1.0899,1.09,1.0893,1.0893,1.0884,1.0885,1.0879,1.0868,1.0862,1.0849,1.0853,1.0873,1.084,1.0839,1.0847,1.0887,1.0897,1.09,1.0864,1.0864,1.0865,1.0888,0,1.0958,1.096,1.0946,1.0952,1.095,1.0931,1.0933,1.0924,1.0915,1.0912,1.0901,1.0897,1.0883,1.0879,1.0882,1.087,1.0881,1.0868,1.0864,1.0864,1.0869,1.0904,1.0914,1.0937,1.0891,1.0891,1.0892,0,1.0983,1.0977,1.0984,1.0971,1.097,1.0971,1.0964,1.0962,1.0952,1.0945,1.094,1.0926,1.0927,1.0912,1.0913,1.0904,1.0902,1.0896,1.0897,1.0896,1.0879,1.0905,1.0943,1.0947,1.0896,1.0896,1.0895,0,1.1011,1.1005,1.1009,1.1005,1.099,1.0992,1.0985,1.0975,1.0972,1.0966,1.0964,1.0958,1.0955,1.095,1.0935,1.0926,1.0939,1.0922,1.0933,1.0933,1.0936,1.0936,1.0976,1.0934,1.0934,1.0934,1.0934,0,1.1036,1.1041,1.1022,1.1023,1.1029,1.1012,1.1017,1.1009,1.1,1.1001,1.0983,1.0984,1.0964,1.0962,1.0951,1.0954,1.0952,1.0947,1.0943,1.0948,1.0949,1.0947,1.0945,1.0935,1.0935,1.0935,1.0934,0,1.1069,1.1056,1.1058,1.1045,1.1041,1.1046,1.1034,1.1035,1.1025,1.1026,1.1025,1.1009,1.1006,1.0991,1.0984,1.0977,1.0984,1.0978,1.0988,1.0986,1.0998,1.0997,1.1037,1.1042,1.0998,1.0998,1.0998,0,1.1086,1.1089,1.1077,1.1076,1.1071,1.107,1.1068,1.1052,1.105,1.104,1.1043,1.1039,1.1036,1.1032,1.102,1.1015,1.1009,1.1023,1.1008,1.1013,1.101,1.101,1.1011,1.1027,1.1027,1.1028,1.1028,0,1.1118,1.1112,1.1109,1.1106,1.1104,1.1099,1.1094,1.1094,1.1077,1.1076,1.1074,1.1071,1.1065,1.1062,1.1056,1.1049,1.1036,1.1033,1.1036,1.1041,1.1047,1.1045,1.0998,1.1032,1.1032,1.1031,1.1031,1.1031,1.1144,1.1146,1.1138,1.1137,1.1131,1.1127,1.1129,1.1119,1.1118,1.1112,1.1103,1.1103,1.1094,1.1085,1.1079,1.1079,1.1071,1.1074,1.1075,1.1076,1.1079,1.1047,1.1077,1.1077,1.1077,1.1077,1.1077,0,1.1175,1.117,1.1169,1.1163,1.1162,1.115,1.1144,1.1144,1.1144,1.1138,1.1135,1.1133,1.1131,1.1119,1.1115,1.1117,1.1111,1.1116,1.1116,1.1115,1.1086,1.1084,1.1122,1.1122,1.1122,1.1122,1.1122,1.1122,1.1192,1.1197,1.119,1.1192,1.1186,1.1186,1.1184,1.118,1.1175,1.1174,1.1173,1.1165,1.1157,1.1153,1.115,1.1147,1.1146,1.1154,1.1149,1.1121,1.1117,1.1113,1.1112,1.1154,1.1154,1.1178,1.1179,1.1179]}]]